Cosmos 2333 Rocket - Orbit

View from above orbital plane
View from above orbital plane
View from above satellite
View from above satellite

Ground track
Ground track

The orbit data is extracted from the following two-line orbital elements,

1 24298U 96051B   13138.83326986  .00000109  00000-0  85284-4 0  1833
2 24298 070.8693 322.0476 0019209 242.8684 212.2237 14.12431737861387
Epoch (UTC): 18 May 2013 19:59:54
Eccentricity: 0.0019209
inclination: 70.8693°
perigee height: 837 km
apogee height: 865 km
right ascension of ascending node: 322.0476°
argument of perigee: 242.8684°
revolutions per day: 14.12431737
mean anomaly at epoch: 212.2237°
orbit number at epoch: 86138

The dashed part of the orbit path shows where the satellite is in the earth's shadow,  

Developed and maintained by Chris Peat, Heavens-Above GmbH. Please read the updated FAQ before sending e-mail. Imprint. DLR